• In Kazakhstan
  • List of Countries
  • For 7 days
  • Water Temperature
  • Satellite Maps
  • Weather Map
  • News
  • Weather Widgets
  • user-avatar
    Login

    Hourly Weather Banda

    Today, 27 September, Wednesday

    Time Temperature Precipitation Wind Pressure Humidity
    00:00 +31°C° 0 mm 1 mps 744 mmHg 56%
    01:00 +30°C° 0 mm 1 mps 744 mmHg 57%
    02:00 +30°C° 0 mm 1 mps 744 mmHg 59%
    03:00 +29°C° 0 mm 1 mps 744 mmHg 60%
    04:00 +27°C° 0 mm 0 mps 745 mmHg 61%
    05:00 +27°C° 0 mm 0 mps 745 mmHg 63%
    06:00 +30°C° 0 mm 1 mps 745 mmHg 60%
    07:00 +31°C° 0 mm 1 mps 746 mmHg 57%
    08:00 +32°C° 0 mm 1 mps 746 mmHg 54%
    09:00 +33°C° 0 mm 1 mps 746 mmHg 49%
    10:00 +36°C° 0 mm 2 mps 746 mmHg 43%
    11:00 +37°C° 0 mm 2 mps 746 mmHg 38%
    12:00 +38°C° 0 mm 3 mps 745 mmHg 36%
    13:00 +38°C° 0 mm 3 mps 744 mmHg 33%
    14:00 +39°C° 0 mm 3 mps 743 mmHg 31%
    15:00 +38°C° 0 mm 3 mps 743 mmHg 34%
    16:00 +37°C° 0 mm 2 mps 743 mmHg 38%
    17:00 +36°C° 0 mm 2 mps 743 mmHg 41%
    18:00 +35°C° 0 mm 2 mps 743 mmHg 42%
    19:00 +33°C° 0 mm 1 mps 744 mmHg 43%
    20:00 +32°C° 0 mm 1 mps 744 mmHg 44%
    21:00 +32°C° 0 mm 1 mps 744 mmHg 46%
    22:00 +31°C° 0 mm 1 mps 744 mmHg 47%
    23:00 +29°C° 0 mm 0 mps 744 mmHg 48%

    Tomorrow, 28 September, Thursday

    Time Temperature Precipitation Wind Pressure Humidity
    00:00 +31°C° 0 mm 1 mps 744 mmHg 50%
    01:00 +30°C° 0 mm 1 mps 744 mmHg 51%
    02:00 +30°C° 0 mm 1 mps 743 mmHg 52%
    03:00 +29°C° 0 mm 1 mps 743 mmHg 53%
    04:00 +29°C° 0 mm 1 mps 743 mmHg 53%
    05:00 +29°C° 0 mm 2 mps 743 mmHg 54%
    06:00 +30°C° 0 mm 2 mps 744 mmHg 52%
    07:00 +31°C° 0 mm 2 mps 744 mmHg 50%
    08:00 +32°C° 0 mm 1 mps 745 mmHg 48%
    09:00 +35°C° 0 mm 2 mps 745 mmHg 44%
    10:00 +36°C° 0 mm 2 mps 744 mmHg 40%
    11:00 +37°C° 0 mm 2 mps 744 mmHg 35%
    12:00 +38°C° 0 mm 2 mps 743 mmHg 33%
    13:00 +39°C° 0 mm 2 mps 743 mmHg 31%
    14:00 +39°C° 0 mm 2 mps 742 mmHg 28%
    15:00 +37°C° 0 mm 1 mps 742 mmHg 31%
    16:00 +36°C° 0 mm 1 mps 742 mmHg 34%
    17:00 +36°C° 0 mm 1 mps 741 mmHg 37%
    18:00 +35°C° 0 mm 1 mps 742 mmHg 38%
    19:00 +34°C° 0 mm 1 mps 743 mmHg 39%
    20:00 +33°C° 0 mm 1 mps 743 mmHg 39%
    21:00 +32°C° 0 mm 1 mps 743 mmHg 41%
    22:00 +32°C° 0 mm 1 mps 743 mmHg 43%
    23:00 +31°C° 0 mm 1 mps 743 mmHg 45%

    Day after tomorrow, 29 September, Friday

    Time Temperature Precipitation Wind Pressure Humidity
    00:00 +31°C° 0 mm 1 mps 743 mmHg 46%
    01:00 +30°C° 0 mm 1 mps 743 mmHg 47%
    02:00 +30°C° 0 mm 1 mps 743 mmHg 49%
    03:00 +29°C° 0 mm 1 mps 743 mmHg 50%
    04:00 +29°C° 0 mm 1 mps 743 mmHg 51%
    05:00 +29°C° 0 mm 1 mps 743 mmHg 52%
    06:00 +30°C° 0 mm 2 mps 743 mmHg 50%
    07:00 +31°C° 0 mm 2 mps 744 mmHg 49%
    08:00 +32°C° 0 mm 2 mps 744 mmHg 48%
    09:00 +33°C° 0 mm 1 mps 744 mmHg 44%
    10:00 +35°C° 0 mm 1 mps 744 mmHg 40%
    11:00 +36°C° 0 mm 1 mps 744 mmHg 36%
    12:00 +37°C° 0 mm 1 mps 743 mmHg 34%
    13:00 +37°C° 0 mm 1 mps 742 mmHg 32%
    14:00 +39°C° 0 mm 1 mps 741 mmHg 31%
    15:00 +37°C° 0 mm 1 mps 741 mmHg 34%
    16:00 +36°C° 0 mm 1 mps 741 mmHg 37%
    17:00 +36°C° 0 mm 1 mps 741 mmHg 41%
    18:00 +35°C° 0 mm 1 mps 742 mmHg 41%
    19:00 +34°C° 0 mm 1 mps 743 mmHg 42%
    20:00 +33°C° 0 mm 1 mps 743 mmHg 43%
    21:00 +33°C° 0 mm 1 mps 743 mmHg 45%
    22:00 +32°C° 0 mm 1 mps 744 mmHg 46%
    23:00 +32°C° 0 mm 1 mps 744 mmHg 48%

    30 September, Saturday

    Time Temperature Precipitation Wind Pressure Humidity
    00:00 +31°C° 0 mm 1 mps 744 mmHg 49%
    01:00 +31°C° 0 mm 1 mps 743 mmHg 51%
    02:00 +30°C° 0 mm 1 mps 743 mmHg 52%
    03:00 +30°C° 0 mm 1 mps 743 mmHg 53%
    04:00 +30°C° 0 mm 1 mps 744 mmHg 55%
    05:00 +30°C° 0 mm 1 mps 744 mmHg 56%
    06:00 +31°C° 0 mm 1 mps 744 mmHg 55%
    07:00 +32°C° 0 mm 1 mps 745 mmHg 53%
    08:00 +32°C° 0 mm 1 mps 746 mmHg 52%
    09:00 +34°C° 0 mm 1 mps 745 mmHg 49%
    10:00 +35°C° 0 mm 1 mps 745 mmHg 46%
    11:00 +36°C° 0 mm 1 mps 745 mmHg 43%
    12:00 +37°C° 0 mm 1 mps 744 mmHg 42%
    13:00 +38°C° 0 mm 2 mps 743 mmHg 42%
    14:00 +38°C° 0 mm 2 mps 743 mmHg 41%
    15:00 +38°C° 0 mm 2 mps 743 mmHg 44%
    16:00 +37°C° 0 mm 2 mps 743 mmHg 47%
    17:00 +37°C° 0 mm 2 mps 743 mmHg 51%
    18:00 +36°C° 0 mm 2 mps 743 mmHg 53%
    19:00 +35°C° 0 mm 2 mps 744 mmHg 56%
    20:00 +34°C° 0 mm 2 mps 744 mmHg 59%
    21:00 +32°C° 0 mm 2 mps 744 mmHg 62%
    22:00 +32°C° 0 mm 2 mps 744 mmHg 64%
    23:00 +31°C° 0 mm 2 mps 744 mmHg 67%

    1 October, Sunday

    Time Temperature Precipitation Wind Pressure Humidity
    00:00 +31°C° 0 mm 2 mps 744 mmHg 69%
    01:00 +31°C° 0 mm 2 mps 743 mmHg 71%
    02:00 +30°C° 0 mm 1 mps 743 mmHg 74%
    03:00 +30°C° 0 mm 1 mps 743 mmHg 75%
    04:00 +29°C° 0 mm 1 mps 744 mmHg 76%
    05:00 +29°C° 0 mm 1 mps 744 mmHg 78%
    06:00 +30°C° 0 mm 1 mps 744 mmHg 74%
    07:00 +31°C° 0 mm 1 mps 745 mmHg 70%
    08:00 +32°C° 0 mm 1 mps 746 mmHg 67%
    09:00 +33°C° 0 mm 1 mps 745 mmHg 60%
    10:00 +35°C° 0 mm 1 mps 745 mmHg 54%
    11:00 +36°C° 0 mm 1 mps 745 mmHg 48%
    12:00 +37°C° 0 mm 1 mps 744 mmHg 45%
    13:00 +38°C° 0 mm 2 mps 743 mmHg 41%
    14:00 +39°C° 0 mm 2 mps 742 mmHg 38%
    15:00 +38°C° 0 mm 2 mps 742 mmHg 41%
    16:00 +37°C° 0 mm 2 mps 742 mmHg 44%
    17:00 +37°C° 0 mm 2 mps 742 mmHg 47%
    18:00 +36°C° 0 mm 2 mps 743 mmHg 50%
    19:00 +35°C° 0 mm 3 mps 743 mmHg 53%
    20:00 +34°C° 0 mm 3 mps 743 mmHg 56%
    21:00 +34°C° 0 mm 3 mps 744 mmHg 59%
    22:00 +33°C° 0 mm 3 mps 744 mmHg 62%
    23:00 +33°C° 0 mm 3 mps 744 mmHg 66%

    2 October, Monday

    Time Temperature Precipitation Wind Pressure Humidity
    00:00 +31°C° 0 mm 3 mps 743 mmHg 68%
    01:00 +31°C° 0 mm 2 mps 743 mmHg 70%
    02:00 +30°C° 0 mm 2 mps 743 mmHg 72%
    03:00 +30°C° 0 mm 2 mps 743 mmHg 74%
    04:00 +30°C° 0 mm 2 mps 743 mmHg 76%
    05:00 +29°C° 0 mm 1 mps 744 mmHg 77%
    06:00 +30°C° 0 mm 2 mps 744 mmHg 74%
    07:00 +31°C° 0 mm 2 mps 745 mmHg 71%
    08:00 +32°C° 0 mm 2 mps 745 mmHg 69%
    09:00 +34°C° 0 mm 2 mps 745 mmHg 63%
    10:00 +35°C° 0 mm 2 mps 745 mmHg 58%
    11:00 +36°C° 0 mm 2 mps 745 mmHg 52%
    12:00 +37°C° 0 mm 2 mps 744 mmHg 51%
    13:00 +37°C° 0 mm 2 mps 743 mmHg 50%
    14:00 +37°C° 0 mm 2 mps 743 mmHg 49%
    15:00 +36°C° 0 mm 2 mps 743 mmHg 51%
    16:00 +36°C° 0 mm 2 mps 743 mmHg 53%
    17:00 +35°C° 0 mm 2 mps 743 mmHg 55%
    18:00 +35°C° 0 mm 2 mps 744 mmHg 57%
    19:00 +34°C° 0 mm 2 mps 744 mmHg 59%
    20:00 +33°C° 0 mm 3 mps 745 mmHg 61%
    21:00 +32°C° 0 mm 2 mps 745 mmHg 64%
    22:00 +31°C° 0 mm 2 mps 745 mmHg 66%
    23:00 +31°C° 0 mm 2 mps 745 mmHg 68%
    Show more